Tracking 19575 objects as of 18-Feb-2019
HD Live streaming from Space Station
objects crossing your sky now

IRIDIUM 180

Track IRIDIUM 180 now!
10-day predictions
IRIDIUM 180 is classified as:


NORAD ID: 43922
Int'l Code: 2019-002A
Perigee: 784.3 km
Apogee: 785.4 km
Inclination: 86.4 °
Period: 100.4 minutes
Semi major axis: 7155 km
RCS: Unknown
Launch date: January 11, 2019
Source: United States (US)
Launch site: AIR FORCE WESTERN TEST RANGE (AFWTR)
aabbcc
Your satellite tracking list
Your tracking list is empty




NASA's NSSDC Master Catalog

Two Line Element Set (TLE):
1 43922U 19002A   19048.95512714 +.00000043 +00000-0 +82312-5 0  9996
2 43922 086.3968 031.9517 0000775 082.8365 277.2919 14.34217141005403
Source of the keplerian elements: AFSPC